EW9807 Weather Reports


time (UTC)temp
C
wind
direction
speed
KPH
gust
KPH
rain 1hr
cm
rain 24hr
cm
rain mn
cm
humidity
%
barometer
mb
20260905084048 23 131 0.0 0.0 0.00 0.00 0.00 92 1012.3
20260905083551 23 131 0.0 0.0 0.00 0.00 0.00 92 1012.4
20260905083050 23 131 0.0 0.0 0.00 0.00 0.00 92 1012.4
20260905082547 23 131 0.0 0.0 0.00 0.00 0.00 92 1012.3
20260905082047 23 131 0.0 0.0 0.00 0.00 0.00 92 1012.4
20260905081547 23 131 0.0 0.0 0.00 0.00 0.00 91 1012.3
20260905081048 23 131 0.0 0.0 0.00 0.00 0.00 91 1012.2
20260905080546 23 131 0.0 0.0 0.00 0.00 0.00 91 1012.3
20260905080112 23 131 0.0 0.0 0.00 0.00 0.00 91 1012.3
20260905075546 23 131 0.0 0.0 0.00 0.00 0.00 91 1012.3
20260905075044 23 131 0.0 0.0 0.00 0.00 0.00 90 1012.2
20260905074544 23 131 0.0 0.0 0.00 0.00 0.00 90 1012.3
20260905074044 23 131 0.0 0.0 0.00 0.00 0.00 90 1012.3
20260905073543 23 131 0.0 0.0 0.00 0.00 0.00 90 1012.2
20260905073044 23 131 0.0 0.0 0.00 0.00 0.00 90 1012.1
20260905072547 23 131 0.0 0.0 0.00 0.00 0.00 90 1012.0
20260905072043 23 131 0.0 0.0 0.00 0.00 0.00 90 1011.9
20260905071543 23 131 0.0 0.0 0.00 0.00 0.00 90 1012.0
20260905071042 23 131 0.0 0.0 0.00 0.00 0.00 90 1012.0
20260905070542 23 131 0.0 0.0 0.00 0.00 0.00 89 1011.9
20260905070050 23 131 0.0 0.0 0.00 0.00 0.00 89 1011.7
20260905065543 23 131 0.0 0.0 0.00 0.00 0.00 88 1011.9
20260905065040 23 131 0.0 0.0 0.00 0.00 0.00 88 1012.0
20260905064547 23 131 0.0 0.0 0.00 0.00 0.00 88 1012.2
20260905064040 23 131 0.0 0.0 0.00 0.00 0.00 87 1012.3
20260905063538 24 131 0.0 0.0 0.00 0.00 0.00 87 1012.4
20260905063041 24 131 0.0 0.0 0.00 0.00 0.00 86 1012.4
20260905062535 24 131 0.0 0.0 0.00 0.00 0.00 86 1012.4
20260905062034 24 131 0.0 0.0 0.00 0.00 0.00 85 1012.5
20260905061535 25 131 0.0 0.0 0.00 0.00 0.00 85 1012.5
20260905061034 25 131 0.0 0.0 0.00 0.00 0.00 84 1012.6
20260905060530 25 131 0.0 0.0 0.00 0.00 0.00 84 1012.7
20260905060043 25 131 0.0 0.0 0.00 0.00 0.00 83 1012.7
20260905055529 25 131 0.0 1.6 0.00 0.00 0.00 83 1012.8
20260905055028 25 131 0.0 3.2 0.00 0.00 0.00 83 1012.9
20260905054536 25 131 0.0 3.2 0.00 0.00 0.00 82 1012.9
20260905054033 25 131 0.0 1.6 0.00 0.00 0.00 82 1013.0
20260905053528 26 131 0.0 1.6 0.00 0.00 0.00 81 1013.0
20260905053028 26 131 0.0 0.0 0.00 0.00 0.00 81 1012.9
20260905052527 26 131 0.0 0.0 0.00 0.00 0.00 80 1012.9
20260905052027 26 131 0.0 3.2 0.00 0.00 0.00 80 1012.9
20260905051527 26 131 0.0 3.2 0.00 0.00 0.00 79 1012.9
20260905051027 26 131 0.0 3.2 0.00 0.00 0.00 79 1012.9
20260905050526 26 131 0.0 3.2 0.00 0.00 0.00 79 1013.0
20260905050028 26 131 0.0 3.2 0.00 0.00 0.00 78 1013.0
20260905045525 26 146 0.0 3.2 0.00 0.00 0.00 78 1013.0
20260905045030 26 145 0.0 4.8 0.00 0.00 0.00 78 1012.9
20260905044534 26 134 0.0 4.8 0.00 0.00 0.00 79 1012.9
20260905044025 25 188 0.0 1.6 0.00 0.00 0.00 80 1013.0
20260905043524 25 188 0.0 1.6 0.00 0.00 0.00 80 1013.1
20260905043023 25 188 0.0 0.0 0.00 0.00 0.00 81 1013.0
20260905042526 25 188 0.0 0.0 0.00 0.00 0.00 80 1013.0
20260905042022 25 188 0.0 0.0 0.00 0.00 0.00 79 1013.0
20260905041522 25 188 0.0 0.0 0.00 0.00 0.00 80 1013.0
20260905041020 25 188 0.0 0.0 0.00 0.00 0.00 79 1012.9
20260905040518 25 188 0.0 0.0 0.00 0.00 0.00 79 1012.8
20260905040024 26 188 0.0 0.0 0.00 0.00 0.00 79 1012.8
20260905035518 26 188 0.0 0.0 0.00 0.00 0.00 78 1012.8
20260905035017 26 188 0.0 0.0 0.00 0.00 0.00 79 1012.8
20260905034518 26 188 0.0 0.0 0.00 0.00 0.00 79 1012.9
20260905034018 26 188 0.0 0.0 0.00 0.00 0.00 78 1012.9
20260905033519 26 188 0.0 0.0 0.00 0.00 0.00 80 1012.9
20260905033017 26 188 0.0 0.0 0.00 0.00 0.00 79 1012.9
20260905032516 26 188 0.0 0.0 0.00 0.00 0.00 78 1012.9
20260905032017 26 188 0.0 0.0 0.00 0.00 0.00 78 1013.0
20260905031529 26 188 0.0 0.0 0.00 0.00 0.00 77 1013.0
20260905031016 26 188 0.0 0.0 0.00 0.00 0.00 77 1013.1
20260905030516 26 188 0.0 0.0 0.00 0.00 0.00 76 1013.2
20260905030017 26 188 0.0 0.0 0.00 0.00 0.00 76 1013.3
20260905025518 26 188 0.0 0.0 0.00 0.00 0.00 76 1013.3
20260905025016 26 188 0.0 0.0 0.00 0.00 0.00 76 1013.3
20260905024517 26 188 0.0 0.0 0.00 0.00 0.00 76 1013.4
20260905024015 26 188 0.0 0.0 0.00 0.00 0.00 76 1013.5
20260905023522 26 188 0.0 0.0 0.00 0.00 0.00 77 1013.5
20260905023018 27 188 0.0 0.0 0.00 0.00 0.00 75 1013.5
20260905022515 27 188 0.0 0.0 0.00 0.00 0.00 77 1013.6
20260905022021 27 188 0.0 0.0 0.00 0.00 0.00 75 1013.6
20260905021529 27 188 0.0 0.0 0.00 0.00 0.00 75 1013.6
20260905021014 27 188 0.0 0.0 0.00 0.00 0.00 74 1013.7
20260905020517 27 188 0.0 0.0 0.00 0.00 0.00 74 1013.7
20260905020014 27 188 0.0 0.0 0.00 0.00 0.00 74 1013.7
20260905015514 27 188 0.0 0.0 0.00 0.00 0.00 74 1013.7
20260905015016 27 188 0.0 0.0 0.00 0.00 0.00 73 1013.8
20260905014514 27 188 0.0 0.0 0.00 0.00 0.00 73 1013.7
20260905014015 27 188 0.0 0.0 0.00 0.00 0.00 73 1013.6
20260905013515 27 188 0.0 0.0 0.00 0.00 0.00 73 1013.6
20260905013015 27 188 0.0 0.0 0.00 0.00 0.00 72 1013.5
20260905012513 27 188 0.0 0.0 0.00 0.00 0.00 72 1013.5
20260905012013 27 188 0.0 0.0 0.00 0.00 0.00 72 1013.4
20260905011513 28 188 0.0 0.0 0.00 0.00 0.00 72 1013.4
20260905011013 28 188 0.0 0.0 0.00 0.00 0.00 72 1013.3
20260905010513 28 188 0.0 0.0 0.00 0.00 0.00 71 1013.3
20260905010012 28 188 0.0 0.0 0.00 0.00 0.00 70 1013.2
20260905005512 28 188 0.0 0.0 0.00 0.00 0.00 69 1013.2
20260905005011 28 188 0.0 0.0 0.00 0.00 0.00 68 1013.1
20260905004513 28 188 0.0 0.0 0.00 0.00 0.00 68 1013.0
20260905004012 28 188 0.0 0.0 0.00 0.00 0.00 68 1012.9
20260905003515 28 188 0.0 0.0 0.00 0.00 0.00 67 1013.0
20260905003022 29 188 0.0 0.0 0.00 0.00 0.00 67 1012.9
20260905002517 29 188 0.0 0.0 0.00 0.00 0.00 66 1012.8
20260905002013 29 188 0.0 0.0 0.00 0.00 0.00 67 1012.9
20260905001511 30 188 0.0 1.6 0.00 0.00 0.00 66 1012.9
20260905001011 30 188 0.0 1.6 0.00 0.00 0.00 65 1012.8
20260905000511 30 188 0.0 1.6 0.00 0.00 0.00 63 1012.7
20260905000011 30 188 0.0 1.6 0.00 0.00 0.00 62 1012.6
20260904235511 31 188 0.0 3.2 0.00 0.00 0.00 62 1012.5
20260904235010 31 188 0.0 3.2 0.00 0.00 0.00 60 1012.5
20260904234510 31 188 0.0 1.6 0.00 0.00 0.00 59 1012.5
20260904234011 32 188 0.0 6.4 0.00 0.00 0.00 57 1012.5
20260904233510 32 188 1.6 6.4 0.00 0.00 0.00 56 1012.4
20260904233030 32 74 3.2 6.4 0.00 0.00 0.00 55 1012.4
20260904232511 32 122 1.6 6.4 0.00 0.00 0.00 56 1012.3
20260904232009 32 214 1.6 4.8 0.00 0.00 0.00 55 1012.4
20260904231510 32 81 1.6 3.2 0.00 0.00 0.00 55 1012.3
20260904231009 32 98 0.0 4.8 0.00 0.00 0.00 55 1012.3
20260904230509 32 77 0.0 4.8 0.00 0.00 0.00 54 1012.3
20260904230025 32 98 0.0 4.8 0.00 0.00 0.00 55 1012.2
20260904225509 33 125 0.0 6.4 0.00 0.00 0.00 54 1012.3
20260904225008 33 70 1.6 6.4 0.00 0.00 0.00 55 1012.2
20260904224508 32 107 1.6 4.8 0.00 0.00 0.00 55 1012.2
20260904224009 32 191 0.0 6.4 0.00 0.00 0.00 55 1012.2
20260904223508 32 172 0.0 3.2 0.00 0.00 0.00 56 1012.1
20260904223008 32 126 1.6 3.2 0.00 0.00 0.00 54 1012.1
20260904222507 33 139 0.0 6.4 0.00 0.00 0.00 54 1012.2
20260904222007 33 139 0.0 9.7 0.00 0.00 0.00 54 1012.2
20260904221508 33 117 1.6 9.7 0.00 0.00 0.00 55 1012.1
20260904221007 33 124 1.6 8.0 0.00 0.00 0.00 53 1012.1
20260904220507 33 134 3.2 6.4 0.00 0.00 0.00 53 1012.2
20260904220012 33 77 1.6 6.4 0.00 0.00 0.00 53 1012.2
20260904215507 33 181 0.0 6.4 0.00 0.00 0.00 54 1012.1
20260904215006 33 141 1.6 6.4 0.00 0.00 0.00 54 1012.2
20260904214506 33 189 0.0 3.2 0.00 0.00 0.00 55 1012.2
20260904214005 33 98 0.0 4.8 0.00 0.00 0.00 55 1012.3
20260904213505 33 98 1.6 4.8 0.00 0.00 0.00 55 1012.3
20260904213005 33 96 1.6 4.8 0.00 0.00 0.00 55 1012.3
20260904212507 33 359 0.0 4.8 0.00 0.00 0.00 55 1012.3
20260904212004 33 308 0.0 4.8 0.00 0.00 0.00 55 1012.4
20260904211504 33 135 1.6 3.2 0.00 0.00 0.00 54 1012.4
20260904211006 33 137 0.0 6.4 0.00 0.00 0.00 56 1012.3
20260904210504 33 139 0.0 6.4 0.00 0.00 0.00 54 1012.3
20260904210004 32 318 0.0 3.2 0.00 0.00 0.00 56 1012.4
20260904205505 32 318 0.0 6.4 0.00 0.00 0.00 57 1012.4
20260904205003 33 318 1.6 6.4 0.00 0.00 0.00 56 1012.3
20260904204502 33 111 0.0 4.8 0.00 0.00 0.00 57 1012.3
20260904204003 33 87 1.6 9.7 0.00 0.00 0.00 55 1012.5
20260904203502 33 103 1.6 9.7 0.00 0.00 0.00 54 1012.4
20260904203001 33 89 1.6 4.8 0.00 0.00 0.00 55 1012.6
20260904202600 33 299 0.0 4.8 0.00 0.00 0.00 55 1012.6
20260904202059 33 326 1.6 6.4 0.00 0.00 0.00 55 1012.8
20260904201618 33 326 0.0 8.0 0.00 0.00 0.00 53 1012.9
20260904201058 33 93 3.2 8.0 0.00 0.00 0.00 53 1012.9
20260904200557 33 129 1.6 6.4 0.00 0.00 0.00 52 1013.0
20260904200058 33 8 1.6 4.8 0.00 0.00 0.00 52 1013.0
20260904195556 33 51 1.6 6.4 0.00 0.00 0.00 53 1013.2
20260904195058 33 134 1.6 6.4 0.00 0.00 0.00 55 1013.2
20260904194558 33 32 1.6 6.4 0.00 0.00 0.00 55 1013.2
20260904194054 33 1 1.6 4.8 0.00 0.00 0.00 54 1013.3
20260904193555 33 143 1.6 4.8 0.00 0.00 0.00 54 1013.3
20260904193059 33 148 0.0 4.8 0.00 0.00 0.00 54 1013.4
20260904192552 33 153 3.2 8.0 0.00 0.00 0.00 54 1013.5
20260904192055 33 172 3.2 8.0 0.00 0.00 0.00 56 1013.6
20260904191551 33 139 1.6 6.4 0.00 0.00 0.00 57 1013.8
20260904191050 33 23 1.6 8.0 0.00 0.00 0.00 56 1013.9
20260904190548 33 153 0.0 8.0 0.00 0.00 0.00 55 1013.9
20260904190049 33 66 1.6 8.0 0.00 0.00 0.00 57 1014.0
20260904185548 32 92 1.6 4.8 0.00 0.00 0.00 58 1014.0
20260904185051 32 95 1.6 3.2 0.00 0.00 0.00 60 1014.1
20260904184547 33 95 1.6 8.0 0.00 0.00 0.00 58 1014.2
20260904184046 32 243 0.0 4.8 0.00 0.00 0.00 60 1014.3
20260904183545 32 347 1.6 8.0 0.00 0.00 0.00 59 1014.4
20260904183044 33 84 3.2 8.0 0.00 0.00 0.00 59 1014.6
20260904182544 33 164 1.6 4.8 0.00 0.00 0.00 59 1014.6
20260904182044 33 51 1.6 9.7 0.00 0.00 0.00 60 1014.7
20260904181543 33 190 3.2 9.7 0.00 0.00 0.00 62 1014.7
20260904181046 33 165 1.6 6.4 0.00 0.00 0.00 59 1014.8
20260904180544 33 120 3.2 12.9 0.00 0.00 0.00 60 1014.8
20260904180055 33 274 1.6 12.9 0.00 0.00 0.00 60 1014.9
20260904175541 33 156 1.6 8.0 0.00 0.00 0.00 60 1014.9
20260904175041 32 68 1.6 4.8 0.00 0.00 0.00 63 1014.9
20260904174545 31 345 1.6 4.8 0.00 0.00 0.00 64 1015.0
20260904174040 31 323 0.0 6.4 0.00 0.00 0.00 63 1015.0
20260904173541 32 320 1.6 6.4 0.00 0.00 0.00 61 1015.1
20260904173058 32 208 1.6 4.8 0.00 0.00 0.00 62 1015.1
20260904172543 32 8 1.6 4.8 0.00 0.00 0.00 61 1015.1
20260904172038 32 1 1.6 4.8 0.00 0.00 0.00 61 1015.2
20260904171548 32 73 1.6 4.8 0.00 0.00 0.00 60 1015.2
20260904171037 32 100 1.6 8.0 0.00 0.00 0.00 60 1015.3
20260904170539 32 332 1.6 8.0 0.00 0.00 0.00 60 1015.4
20260904170038 32 193 3.2 8.0 0.00 0.00 0.00 60 1015.4
20260904165535 32 6 1.6 4.8 0.00 0.00 0.00 62 1015.4
20260904165036 32 29 1.6 4.8 0.00 0.00 0.00 63 1015.4
20260904164534 32 116 0.0 6.4 0.00 0.00 0.00 65 1015.4
20260904164034 31 322 0.0 4.8 0.00 0.00 0.00 64 1015.4
20260904163537 31 331 0.0 4.8 0.00 0.00 0.00 67 1015.5
20260904163041 31 331 0.0 3.2 0.00 0.00 0.00 67 1015.5
20260904162533 31 331 0.0 6.4 0.00 0.00 0.00 65 1015.6
20260904162031 31 35 1.6 6.4 0.00 0.00 0.00 65 1015.7
20260904161531 31 190 1.6 6.4 0.00 0.00 0.00 69 1015.8
20260904161029 31 337 1.6 6.4 0.00 0.00 0.00 66 1015.8
20260904160533 31 1 1.6 8.0 0.00 0.00 0.00 66 1015.9
20260904160034 31 89 3.2 8.0 0.00 0.00 0.00 66 1016.0
20260904155525 30 119 1.6 8.0 0.00 0.00 0.00 67 1016.1
20260904155025 30 112 1.6 8.0 0.00 0.00 0.00 69 1016.1
20260904154524 30 316 1.6 4.8 0.00 0.00 0.00 69 1016.1
20260904154022 30 310 1.6 6.4 0.00 0.00 0.00 71 1016.1
20260904153522 30 285 1.6 3.2 0.00 0.00 0.00 71 1016.1
20260904153021 30 285 0.0 3.2 0.00 0.00 0.00 71 1016.1
20260904152519 30 285 0.0 4.8 0.00 0.00 0.00 73 1016.1
20260904152020 30 158 0.0 3.2 0.00 0.00 0.00 73 1016.2
20260904151518 30 134 1.6 8.0 0.00 0.00 0.00 72 1016.2
20260904151019 29 139 0.0 8.0 0.00 0.00 0.00 73 1016.3
20260904150517 28 153 1.6 4.8 0.00 0.00 0.00 73 1016.2
20260904150016 28 139 0.0 3.2 0.00 0.00 0.00 76 1016.2
20260904145513 28 139 1.6 3.2 0.00 0.00 0.00 77 1016.1
20260904145011 28 139 0.0 3.2 0.00 0.00 0.00 78 1016.0
20260904144509 28 139 0.0 3.2 0.00 0.00 0.00 79 1016.0
20260904144008 27 152 0.0 1.6 0.00 0.00 0.00 79 1016.0
20260904143508 27 152 0.0 4.8 0.00 0.00 0.00 79 1016.1
20260904143026 27 152 1.6 6.4 0.00 0.00 0.00 78 1016.0
20260904142508 27 129 0.0 4.8 0.00 0.00 0.00 80 1016.0
20260904142006 27 129 0.0 4.8 0.00 0.00 0.00 80 1016.0
20260904141505 27 169 0.0 6.4 0.00 0.00 0.00 80 1016.0
20260904141004 27 183 3.2 6.4 0.00 0.00 0.00 81 1016.0
20260904140503 27 77 1.6 4.8 0.00 0.00 0.00 81 1016.0
20260904140002 26 80 1.6 4.8 0.00 0.00 0.00 81 1016.1
20260904135502 26 135 1.6 4.8 0.00 0.00 0.00 83 1016.1
20260904135101 26 204 0.0 3.2 0.00 0.00 0.00 84 1016.1
20260904134606 26 204 0.0 3.2 0.00 0.00 0.00 84 1016.0
20260904134059 26 204 1.6 3.2 0.00 0.00 0.00 85 1016.0
20260904133559 26 204 1.6 3.2 0.00 0.00 0.00 85 1015.9
20260904133059 25 281 0.0 0.0 0.00 0.00 0.00 86 1015.8
20260904132558 25 282 0.0 0.0 0.00 0.00 0.00 87 1015.8
20260904132059 25 282 0.0 0.0 0.00 0.00 0.00 87 1015.8
20260904131558 25 282 0.0 0.0 0.00 0.00 0.00 88 1015.9
20260904131058 25 282 0.0 0.0 0.00 0.00 0.00 88 1016.0
20260904130556 25 282 0.0 0.0 0.00 0.00 0.00 89 1016.0
20260904130056 25 282 0.0 0.0 0.00 0.00 0.00 89 1015.9
20260904125556 24 282 0.0 0.0 0.00 0.00 0.00 89 1015.8
20260904125059 24 282 0.0 0.0 0.00 0.00 0.00 90 1015.8
20260904124602 24 282 0.0 0.0 0.00 0.00 0.00 91 1015.9
20260904124059 23 282 0.0 0.0 0.00 0.00 0.00 91 1016.0
20260904123555 23 282 0.0 0.0 0.00 0.00 0.00 92 1015.8
20260904123055 23 282 0.0 0.0 0.00 0.00 0.00 92 1015.9
20260904122554 23 282 0.0 0.0 0.00 0.00 0.00 93 1015.8
20260904122054 23 282 0.0 0.0 0.00 0.00 0.00 93 1015.7
20260904121553 23 282 0.0 0.0 0.00 0.00 0.00 93 1015.7
20260904121056 22 282 0.0 0.0 0.00 0.00 0.00 93 1015.8
20260904120553 22 282 0.0 0.0 0.00 0.00 0.00 93 1015.8
20260904120055 22 282 0.0 0.0 0.00 0.00 0.00 93 1015.7
20260904115550 22 282 0.0 0.0 0.00 0.00 0.00 93 1015.7
20260904115049 22 282 0.0 0.0 0.00 0.00 0.00 93 1015.6
20260904114548 22 282 0.0 0.0 0.00 0.00 0.00 93 1015.5
20260904114048 22 282 0.0 0.0 0.00 0.00 0.00 93 1015.5
20260904113548 22 282 0.0 0.0 0.00 0.00 0.00 93 1015.5
20260904113051 22 282 0.0 0.0 0.00 0.00 0.00 93 1015.5
20260904112548 22 64 0.0 0.0 0.00 0.00 0.00 93 1015.4
20260904112051 22 64 0.0 0.0 0.00 0.00 0.00 93 1015.3
20260904111546 22 64 0.0 0.0 0.00 0.00 0.00 93 1015.4
20260904111046 22 64 0.0 0.0 0.00 0.00 0.00 92 1015.3
20260904110548 22 64 0.0 0.0 0.00 0.00 0.00 92 1015.3
20260904110044 22 64 0.0 0.0 0.00 0.00 0.00 92 1015.2
20260904105544 22 64 0.0 0.0 0.00 0.00 0.00 92 1015.2
20260904105043 22 64 0.0 0.0 0.00 0.00 0.00 92 1015.1
20260904104543 22 64 0.0 0.0 0.00 0.00 0.00 92 1015.1
20260904104042 22 64 0.0 0.0 0.00 0.00 0.00 91 1015.1
20260904103542 23 64 0.0 0.0 0.00 0.00 0.00 91 1015.1
20260904103044 23 64 0.0 0.0 0.00 0.00 0.00 91 1015.1
20260904102542 23 64 0.0 0.0 0.00 0.00 0.00 91 1015.1
20260904102041 23 64 0.0 0.0 0.00 0.00 0.00 91 1015.0
20260904101540 23 64 0.0 0.0 0.00 0.00 0.00 91 1014.9
20260904101042 23 64 0.0 0.0 0.00 0.00 0.00 91 1014.9
20260904100542 23 64 0.0 0.0 0.00 0.00 0.00 90 1014.8
20260904100042 23 64 0.0 0.0 0.00 0.00 0.00 90 1014.9
20260904095539 23 64 0.0 0.0 0.00 0.00 0.00 90 1014.9
20260904095041 23 64 0.0 0.0 0.00 0.00 0.00 91 1014.8
20260904094546 23 64 0.0 0.0 0.00 0.00 0.00 90 1014.8
20260904094038 23 64 0.0 0.0 0.00 0.00 0.00 90 1014.8
20260904093542 23 64 0.0 0.0 0.00 0.00 0.00 91 1014.8
20260904093038 23 64 0.0 0.0 0.00 0.00 0.00 91 1014.7
20260904092538 23 64 0.0 0.0 0.00 0.00 0.00 90 1014.7
20260904092037 23 64 0.0 0.0 0.00 0.00 0.00 90 1014.7
20260904091537 23 64 0.0 0.0 0.00 0.00 0.00 90 1014.8
20260904091037 23 64 0.0 0.0 0.00 0.00 0.00 90 1014.8
20260904090539 23 64 0.0 0.0 0.00 0.00 0.00 90 1014.8
20260904090035 23 64 0.0 0.0 0.00 0.00 0.00 90 1014.8
20260904085534 23 64 0.0 0.0 0.00 0.00 0.00 89 1014.8
20260904085040 23 64 0.0 0.0 0.00 0.00 0.00 89 1014.8
20260904084535 23 64 0.0 0.0 0.00 0.00 0.00 89 1014.8